Location: Kutna Hora
(49.9500°N, 15.2670°E)
Time: 20:25:28
(UTC+02:00)

ISS - Pass Details

Date: 29 March 2019
Orbit: 408 x 410 km, 51.6° (Epoch: 26 April)

Event Time Altitude Azimuth Distance (km) Brightness Sun altitude
Rises 21:40:26 0° 287° (WNW) 2,339 0.9 -28.3°
Reaches altitude 10° 21:42:32 10° 285° (WNW) 1,475 -0.3 -28.5°
Enters shadow 21:43:00 13° 284° (WNW) 1,292 -0.7 -28.6°
